Flag for Germany Weather past 2 weeks in Lübeck, Schleswig-Holstein, Germany

Now
63 °F

Clear.


Feels Like: 63 °F
Forecast: 63 / 78 °F
Wind: 3 mph from North

Location: Hamburg-Fuhlsbuettel

Current Time: Jul 29, 2014 at 5:48:10 AM

Latest Report: Jul 29, 2014 at 4:50 AM


Visibility: 10 mi

Pressure: 29.86 "Hg

Humidity: 94%

Dew point: 61 °F

Location of LübeckLocation

Historic Weather in Lübeck — Graph

°F

Lübeck temperature yesterday

Maximum temperature yesterday: 82 °F (at 4:20 PM)
Minimum temperature yesterday: 59 °F (at 5:20 AM)
Average temperature yesterday: 72 °F

Past Weeks' High & Low Weather Summary

 TemperatureHumidityPressure
High88 °F (Jul 19, 2:20 PM)100% (Jul 14, 4:50 AM)30.18 "Hg (Jul 14, 4:50 AM)
Low52 °F (Jul 17, 4:20 AM)29% (Jul 19, 6:20 PM)29.68 "Hg (Jul 14, 4:20 AM)
Average71 °F71%30.00 "Hg
* Reported Jul 14 4:20 AM — Jul 29 4:20 AM, Lübeck, Weather by CustomWeather, © 2014

Note: Actual official high and low records may vary slightly from our data, if they occured in-between our weather recording intervals... More about our weather records

Advertising

Lübeck weather history for previous 24 hours

 ConditionsComfort  
Time TempWeatherWind HumidityBarometerVisibility
4:20 AM
Jul 29
64 °FClear.2 mph94%29.86 "Hg10 mi
3:50 AM64 °FClear.2 mph94%29.86 "Hg10 mi
3:20 AM64 °FClear.2 mph88%29.86 "Hg10 mi
2:50 AM66 °FClear.2 mph88%29.86 "Hg10 mi
2:20 AM66 °FClear.2 mph88%29.89 "Hg10 mi
1:50 AM66 °FClear.2 mph88%29.89 "Hg10 mi
1:20 AM66 °FPassing clouds.6 mph83%29.89 "HgN/A
12:50 AM66 °FClear.6 mph88%29.89 "Hg10 mi
12:20 AM68 °FClear.5 mph83%29.89 "Hg10 mi
10:50 PM
Jul 28
72 °FClear.6 mph69%29.89 "Hg10 mi
10:20 PM73 °FSunny.6 mph65%29.89 "Hg10 mi
9:50 PM73 °FSunny.7 mph69%29.89 "Hg10 mi
9:20 PM75 °FPassing clouds.7 mph61%29.89 "HgN/A
8:50 PM77 °FScattered clouds.9 mph61%29.89 "HgN/A
8:20 PM79 °FScattered clouds.10 mph58%29.89 "HgN/A
7:50 PM79 °FScattered clouds.10 mph58%29.86 "HgN/A
7:20 PM81 °FScattered clouds.10 mph54%29.86 "HgN/A
6:50 PM82 °FScattered clouds.9 mph48%29.86 "HgN/A
6:20 PM82 °FScattered clouds.9 mph48%29.86 "HgN/A
5:50 PM82 °FScattered clouds.7 mph51%29.86 "HgN/A
5:20 PM82 °FScattered clouds.8 mph48%29.86 "HgN/A
4:50 PM82 °FScattered clouds.8 mph48%29.89 "HgN/A
4:20 PM82 °FScattered clouds.6 mph45%29.89 "HgN/A
3:50 PM81 °FScattered clouds.6 mph48%29.89 "HgN/A
3:20 PM81 °FPassing clouds.6 mph48%29.89 "HgN/A
2:50 PM81 °FScattered clouds.8 mph51%29.89 "HgN/A
2:20 PM79 °FScattered clouds.7 mph54%29.92 "HgN/A
1:50 PM81 °FScattered clouds.6 mph54%29.92 "HgN/A
1:20 PM77 °FScattered clouds.8 mph61%29.92 "HgN/A
12:50 PM77 °FScattered clouds.5 mph57%29.92 "HgN/A
12:20 PM77 °FScattered clouds.7 mph61%29.95 "HgN/A
11:50 AM75 °FScattered clouds.7 mph65%29.95 "HgN/A
11:20 AM75 °FScattered clouds.7 mph69%29.95 "HgN/A
10:50 AM75 °FScattered clouds.6 mph69%29.95 "HgN/A
10:20 AM73 °FScattered clouds.7 mph74%29.95 "HgN/A
9:50 AM72 °FScattered clouds.6 mph78%29.95 "HgN/A
9:20 AM70 °FScattered clouds.6 mph83%29.95 "HgN/A
8:50 AM68 °FPassing clouds.5 mph88%29.95 "Hg6 mi
8:20 AM66 °FScattered clouds.3 mph94%29.95 "Hg5 mi
7:50 AM64 °FFog.3 mph100%29.95 "Hg3 mi
7:20 AM63 °FMild.3 mph100%29.95 "Hg2 mi
6:50 AM61 °FFog.2 mph100%29.95 "Hg1 mi
6:20 AM59 °FFog.2 mph100%29.95 "Hg0 mi
5:50 AM59 °FFog.3 mph100%29.95 "Hg1 mi
5:20 AM59 °FFog.3 mph100%29.95 "Hg1 mi
Weather by CustomWeather, © 2014

See weather overviewHow to use our weather pages